Regional Weather Roundup
Issued by NWS

Home | Current Version | Previous Version | Graphics & Text | Print | Product List | Glossary On
Versions: 1 2 3 4 5 6 7 8 9 10 11 12 13 14 15 16 17 18 19 20 21 22 23 24 25 26 27 28 29 30 31 32 33 34 35 36 37 38 39 40 41 42 43 44 45 46 47 48 49 50
000
ASUS43 KIND 240559
RWRIN

WEATHER ROUNDUP FOR INDIANA
NATIONAL WEATHER SERVICE INDIANAPOLIS IN
200 AM EDT MON APR 24 2017

NOTE: "FAIR" INDICATES FEW OR NO CLOUDS BELOW 12,000 FEET WITH NO
SIGNIFICANT WEATHER AND/OR OBSTRUCTIONS TO VISIBILITY.

* - STATION DOES NOT REPORT WEATHER SUCH AS PRECIPITATION OR FOG.

+ - STATION NOT QUALITY CONTROLLED BY THE NATIONAL WEATHER SERVICE.
    USE DATA WITH CAUTION...ESPECIALLY DEWPOINT AND RELATIVE
    HUMIDITY OBSERVATIONS.

INZ001>003-010>013-019-020-240700-
NORTHWEST INDIANA

CITY           SKY/WX    TMP DP  RH WIND       PRES   REMARKS
KNOX *+        CLOUDY    43  14  31 NE3       30.03S
MONTICELLO +   CLEAR     52  32  47 NE5       30.01F
6HR MIN TEMP:  49; 6HR MAX TEMP:  67;


$$

LMZ046-743>745-240700-
SOUTHERN LAKE MICHIGAN

STATION/POSITION TIME  TEMP    WIND        PRES    WAVE
                       AIR SEA DIR/SP/G            HT
                 (UTC) (F)     (DEG/KT/KT) (MB)    (FT)
BURNS HARBOR     0540   49     340/  5/  7 1017.6S
MICHIGAN CITY    0530   52      70/  2/  3   N/A

$$

INZ004-005-014>016-021>024-240700-
NORTH CENTRAL INDIANA

CITY           SKY/WX    TMP DP  RH WIND       PRES   REMARKS
GOSHEN         CLEAR     47  35  63 NE3       30.03F
6HR MIN TEMP:  45; 6HR MAX TEMP:  65;

PERU/GRISSOM   CLEAR     46  34  64 E5        30.00S
6HR MIN TEMP:  46; 6HR MAX TEMP:  63;

SOUTH BEND     PTCLDY    40  32  73 N3        30.04F
6HR MIN TEMP:  39; 6HR MAX TEMP:  61;


$$

INZ006>009-017-018-025>027-240700-
NORTHEAST INDIANA

CITY           SKY/WX    TMP DP  RH WIND       PRES   REMARKS
ANGOLA *+      CLEAR     45  45 100 CALM      30.03F
FORT WAYNE     PTCLDY    45  32  60 CALM      30.03S
6HR MIN TEMP:  45; 6HR MAX TEMP:  62;

KENDALLVILLE + CLEAR     45  37  71 CALM      30.03F

$$

INZ028-029-035-036-043>045-051>053-240700-
WEST CENTRAL INDIANA

CITY           SKY/WX    TMP DP  RH WIND       PRES   REMARKS
CRAWFORDSVL +  CLEAR     46  32  59 NE7       30.00S
6HR MIN TEMP:  46; 6HR MAX TEMP:  63;

GREENCASTLE +  CLEAR     50  32  50 N5        29.99F
LAFAYETTE      CLEAR     45  39  79 E3        30.01S
6HR MIN TEMP:  44; 6HR MAX TEMP:  64;

TERRE HAUTE    CLEAR     45  31  58 N6        29.98F
6HR MIN TEMP:  44; 6HR MAX TEMP:  67;


$$

INZ030>032-037>040-046>048-054>057-064-065-240700-
CENTRAL INDIANA

CITY           SKY/WX    TMP DP  RH WIND       PRES   REMARKS
INDIANAPOLIS   CLEAR     51  32  48 NE9       29.98F
6HR MIN TEMP:  51; 6HR MAX TEMP:  67;

-EAGLE CREEK   CLEAR     54  31  41 NE6       29.98F
6HR MIN TEMP:  54; 6HR MAX TEMP:  68;

KOKOMO +       CLEAR     48  33  56 CALM      30.02S
6HR MIN TEMP:  47; 6HR MAX TEMP:  63;

SHELBYVILLE    CLEAR     53  32  44 NE9       29.96F
6HR MIN TEMP:  53; 6HR MAX TEMP:  70;


$$

INZ033-034-041-042-049-050-058-059-240700-
EAST CENTRAL INDIANA

CITY           SKY/WX    TMP DP  RH WIND       PRES   REMARKS
MUNCIE         CLEAR     48  30  49 E5        30.00F
6HR MIN TEMP:  48; 6HR MAX TEMP:  66;

RICHMOND +     CLEAR     45  36  70 NE9       29.98F

$$

INZ060-061-067>069-081>083-085>088-240700-
SOUTHWEST INDIANA

CITY           SKY/WX    TMP DP  RH WIND       PRES   REMARKS
EVANSVILLE     CLEAR     55  35  47 N9        29.91F
6HR MIN TEMP:  51; 6HR MAX TEMP:  67;

HUNTINGBURG *+ PTCLDY    53  37  54 NE10      29.92F
6HR MIN TEMP:  52; 6HR MAX TEMP:  65;


$$

INZ062-063-066-070>080-084-089>092-240700-
SOUTH CENTRAL AND SOUTHEAST INDIANA

CITY           SKY/WX    TMP DP  RH WIND       PRES   REMARKS
BLOOMINGTON    CLEAR     54  30  40 NE6       29.96F
6HR MIN TEMP:  53; 6HR MAX TEMP:  69;

MADISON *+     CLOUDY    54  39  58 N3        29.97F
SEYMOUR +      CLEAR     50  37  62 NE3       29.96F

$$





USA.gov is the U.S. government's official web portal to all federal, state and local government web resources and services.